Wind_Speed
37 37 37 38 38 39 39 40 40 40 41 41 42 42 42 43 43 43 43 43 44 44 44 44 45 45 45 46 46 47 47 48 48 49 49 49 50 50 51 51 52 52 53 53 54 54 54 54 55 55 54 54 54 54 54 54 54 54 54 54 55 55 55 56 56 57 57 57 58 58 59 59 59 60 60 61 61 61 61 61 61 61 60 60 60 60
37 37 38 38 39 40 40 41 41 41 42 42 42 43 43 43 44 44 44 44 45 45 45 45 46 46 46 47 47 48 49 49 50 50 50 51 51 52 52 53 53 54 54 55 55 55 55 55 55 55 55 54 54 54 54 54 54 54 54 54 54 55 55 56 56 57 57 58 58 58 59 59 60 60 60 61 61 62 62 62 62 62 62 62 62 62
37 38 39 39 40 41 41 42 42 42 43 43 43 44 44 44 44 45 45 45 45 45 46 46 47 47 48 48 49 49 50 51 51 52 52 53 53 53 54 54 55 55 55 56 56 56 56 56 56 55 55 54 54 54 53 53 53 54 54 54 55 55 56 56 57 57 58 59 59 59 60 60 60 61 61 61 62 62 62 63 63 63 63 63 63 63
38 39 39 40 41 41 42 42 43 43 43 44 44 44 44 45 45 45 45 46 46 46 47 47 48 48 49 50 50 51 52 52 53 53 54 54 54 55 55 56 56 56 57 57 57 57 57 57 56 56 55 54 54 54 54 54 54 54 55 55 56 57 57 58 59 59 60 60 61 61 61 62 62 62 63 63 63 63 63 63 63 64 64 64 64 65
38 39 40 41 41 42 43 43 43 44 44 44 45 45 45 45 45 46 46 46 47 47 48 48 49 50 50 51 52 52 53 54 54 55 55 56 56 56 57 57 57 58 58 58 58 58 58 58 57 56 55 55 55 55 55 55 55 56 57 58 58 59 60 61 61 62 62 63 63 64 64 64 64 64 64 65 65 65 65 64 64 64 65 65 65 65
39 40 41 41 42 43 43 44 44 44 45 45 45 45 46 46 46 46 47 47 48 48 49 50 50 51 52 53 53 54 55 55 56 56 57 57 57 58 58 58 58 59 59 59 59 59 59 58 57 57 56 56 56 56 56 57 58 58 59 60 61 62 63 64 64 65 65 66 66 67 67 67 67 67 67 67 67 67 67 66 66 66 66 66 66 66
40 41 41 42 43 43 44 44 45 45 45 45 45 46 46 46 47 47 48 48 49 50 50 51 52 53 54 54 55 56 56 57 57 58 58 58 58 59 59 59 60 60 60 60 60 60 60 59 58 58 57 57 58 58 59 59 60 61 62 63 64 65 66 67 68 68 69 69 69 70 70 70 70 69 69 69 69 69 69 69 68 68 68 68 67 67
41 42 42 43 43 44 44 45 45 45 46 46 46 46 47 47 48 48 49 50 51 51 52 53 53 54 55 56 57 57 58 58 58 59 59 59 59 60 60 60 61 61 61 61 61 61 61 60 60 59 59 59 60 60 61 62 64 65 66 67 68 69 70 70 71 71 72 72 72 72 72 72 72 72 72 71 71 71 71 70 70 70 70 70 69 69
42 43 43 43 44 45 45 45 46 46 46 47 47 47 48 48 49 50 50 51 52 53 54 54 55 56 57 57 58 58 59 59 59 59 60 60 60 60 61 61 62 62 62 62 62 62 61 61 61 61 61 62 62 63 64 66 67 68 69 70 71 72 73 73 74 75 75 75 75 75 75 75 75 74 74 74 73 73 73 72 72 72 72 71 71 71
43 43 44 44 45 45 45 46 46 46 47 48 48 49 49 50 50 51 52 53 54 55 55 56 56 57 58 58 59 59 60 60 60 60 60 60 61 61 62 62 62 63 63 63 63 62 62 62 62 62 63 63 65 66 67 68 70 71 72 73 74 75 76 76 77 77 78 78 78 78 77 77 77 76 76 75 75 75 74 74 74 73 73 73 73 73
43 44 44 45 45 45 46 46 47 47 48 49 49 50 51 51 52 53 53 54 55 55 56 57 57 58 58 59 59 59 60 60 60 60 60 61 61 62 62 63 63 63 63 63 63 63 63 63 63 63 64 65 66 68 69 71 72 74 75 76 77 77 78 79 79 80 80 80 80 80 79 79 78 78 78 77 77 76 76 75 75 75 74 74 74 74
44 44 45 45 45 46 46 47 47 48 49 49 50 51 52 52 53 54 55 55 55 56 57 57 58 58 59 59 59 59 60 60 60 60 60 61 62 62 63 63 64 64 64 63 63 63 63 63 63 64 65 67 68 70 71 73 74 76 77 78 79 79 80 80 81 81 81 81 81 81 81 80 80 79 79 78 78 78 77 77 76 76 76 75 75 75
44 45 45 45 46 46 47 47 48 48 49 50 51 52 52 53 54 55 56 56 56 57 57 57 58 58 59 59 59 60 60 60 60 60 60 61 62 63 63 64 64 64 64 63 63 63 63 63 64 65 66 68 70 71 73 75 76 77 78 79 80 81 81 82 82 82 82 82 82 82 81 81 81 80 80 79 79 79 78 78 77 77 77 76 76 76
45 45 45 46 46 47 47 48 48 49 50 50 51 52 53 54 55 55 56 57 57 57 58 58 58 58 58 59 59 60 60 60 60 60 61 61 63 63 64 64 64 64 63 63 63 62 63 64 64 66 67 69 71 73 75 76 77 79 80 80 81 82 82 83 83 83 83 82 82 81 81 81 80 80 80 79 79 79 79 78 78 78 78 77 77 77
45 45 46 46 46 47 47 48 48 49 50 50 51 52 53 54 55 56 57 57 58 58 58 58 58 58 58 59 59 60 60 60 60 60 61 62 63 64 64 64 64 63 63 63 62 62 63 64 65 67 68 70 72 74 76 77 79 80 81 82 82 83 83 83 83 83 82 82 81 80 80 79 79 79 79 79 79 79 79 79 78 78 78 78 78 77
46 46 46 46 47 47 48 48 49 49 50 50 51 52 54 55 55 56 57 57 58 58 58 58 58 58 58 59 59 60 61 61 61 61 61 62 63 64 65 64 64 63 62 62 62 63 64 65 67 68 70 72 74 75 77 78 79 80 81 82 83 83 83 83 83 82 81 81 80 79 78 78 77 77 77 77 77 78 78 78 78 78 78 78 78 78
46 46 47 47 47 47 48 48 49 49 50 50 51 52 54 55 56 56 57 58 58 58 59 58 58 58 58 58 59 60 61 62 62 61 62 62 63 64 65 64 64 63 62 62 63 64 65 66 68 70 72 73 75 77 78 79 80 81 82 82 83 83 82 82 81 80 79 79 78 77 77 76 76 76 76 76 76 76 76 77 77 77 78 78 78 78
46 47 47 47 47 48 48 49 49 49 50 51 52 53 54 55 56 57 58 58 59 59 59 59 59 59 59 59 60 61 62 63 63 63 62 63 63 64 64 64 63 62 62 62 63 65 66 68 70 71 73 75 76 78 79 80 81 82 82 82 82 81 81 80 79 78 77 76 76 75 75 75 74 74 74 74 75 75 75 75 76 76 77 77 78 78
47 47 47 48 48 48 48 49 49 50 50 51 52 53 54 55 56 57 58 59 60 60 60 60 60 60 60 60 61 62 63 63 64 64 63 63 63 63 64 64 63 63 62 63 65 66 68 70 71 73 74 76 78 79 80 81 82 82 82 82 81 80 79 78 77 76 75 75 74 74 74 74 74 74 74 74 74 74 74 75 75 75 76 76 77 77
47 48 48 48 48 48 49 49 50 50 51 52 52 53 54 55 56 58 59 60 61 61 61 62 62 61 61 62 62 63 64 65 65 65 64 64 63 63 63 63 63 63 63 65 66 68 70 71 73 74 76 77 79 80 81 82 82 82 81 81 79 78 77 76 75 74 74 73 73 73 74 74 74 74 74 74 74 75 75 75 75 75 75 75 76 76
48 48 48 48 49 49 49 50 50 51 52 52 53 54 55 56 57 58 60 61 62 62 63 63 63 63 63 63 64 64 65 66 66 66 65 64 63 63 63 64 64 64 65 66 68 70 71 73 74 76 77 79 80 81 82 82 82 81 80 79 78 77 75 74 74 73 73 73 73 74 74 74 75 75 75 75 75 76 76 76 76 75 75 75 76 76
48 49 49 49 49 50 50 51 51 52 53 53 54 55 56 57 58 60 61 62 63 63 64 64 64 64 64 64 65 66 66 67 67 67 66 64 63 63 64 65 66 66 67 68 69 71 73 74 76 77 78 80 81 82 82 82 81 80 79 78 76 75 74 74 73 73 73 74 74 75 75 75 76 76 76 77 77 77 77 77 77 77 76 76 76 76
49 49 49 49 50 50 51 51 52 53 53 54 55 56 57 58 60 61 62 63 64 64 64 64 64 64 65 65 66 67 67 68 68 68 67 65 64 64 64 66 67 68 69 70 71 73 74 75 77 78 80 81 81 82 82 81 80 79 77 76 75 74 74 74 74 74 75 75 76 76 77 77 78 78 78 79 79 79 79 79 79 78 78 77 77 77
49 50 50 50 51 51 52 52 53 54 54 55 56 58 59 60 61 63 64 65 66 66 66 65 65 65 65 66 66 67 68 68 68 68 68 66 65 65 66 67 69 70 70 71 72 74 75 77 78 80 81 81 82 81 81 80 78 77 76 75 74 74 74 74 75 76 76 77 78 78 79 80 80 80 81 81 81 81 81 81 81 80 80 79 79 78
50 50 51 51 52 52 53 53 54 55 56 57 58 59 61 62 63 65 66 67 68 68 67 66 66 65 66 66 67 68 68 68 69 69 68 67 67 66 67 69 70 71 72 72 74 75 77 78 79 80 81 81 81 80 79 78 77 76 75 74 74 74 75 76 77 78 78 79 80 80 81 81 82 82 82 82 83 83 83 83 83 82 82 81 81 80
51 51 52 52 53 53 54 54 55 56 57 59 60 61 63 64 65 67 68 69 69 69 68 68 67 66 66 67 67 68 68 69 69 69 69 69 68 68 69 70 72 73 74 74 75 77 78 79 80 81 81 81 80 79 77 76 75 75 74 74 75 76 76 77 78 79 79 80 80 81 81 81 82 82 82 82 83 83 83 83 83 83 83 83 82 82
52 52 53 53 54 54 55 56 56 58 59 60 62 63 65 66 67 68 69 70 70 70 70 69 68 67 67 67 68 68 68 69 69 70 70 70 70 70 70 72 73 74 75 76 77 78 79 80 81 81 80 79 78 77 76 75 74 74 75 75 76 77 78 78 79 79 79 78 78 78 78 79 79 79 79 80 80 80 80 81 81 81 82 82 82 82
53 53 54 54 55 55 56 57 58 59 61 62 64 65 66 67 69 70 71 71 72 71 70 70 69 68 68 68 68 68 68 69 70 71 71 71 71 72 72 73 75 76 77 78 78 79 80 80 80 80 79 78 77 76 75 74 74 75 76 76 77 78 78 77 77 76 75 74 74 73 73 73 73 74 74 74 74 75 75 75 76 77 77 78 79 79
54 54 55 55 56 57 57 58 59 61 62 64 65 67 68 69 70 71 72 72 72 72 71 70 70 69 69 68 68 68 68 69 71 72 72 72 73 73 74 75 76 78 79 80 80 80 80 79 79 79 78 77 76 75 74 75 75 76 77 77 77 76 75 74 72 71 69 68 68 67 67 67 67 67 67 67 67 67 68 68 69 70 70 71 72 73
54 55 56 56 57 58 59 60 61 62 64 65 67 68 69 71 72 72 73 73 73 72 71 71 70 70 69 69 68 68 68 70 71 73 73 74 74 74 75 76 77 79 80 81 82 81 80 79 77 77 76 76 75 75 75 76 76 77 77 76 74 73 70 68 66 64 63 62 61 61 60 60 60 60 60 60 60 60 60 61 61 62 63 63 64 64
55 56 56 57 58 59 60 61 62 63 65 66 68 69 70 72 73 74 74 74 73 72 71 71 70 70 69 69 68 68 69 70 72 74 74 75 75 75 76 77 79 80 81 82 83 82 81 79 76 75 75 75 75 75 76 76 76 76 74 72 69 67 64 61 60 58 57 56 56 56 55 55 55 55 55 55 55 55 55 56 56 57 57 57 56 56
55 56 57 58 59 60 61 62 63 64 66 67 68 70 71 73 74 74 74 74 73 72 71 71 70 70 69 69 69 69 69 71 73 74 75 76 76 76 77 78 79 81 82 83 83 82 81 79 76 74 73 74 75 76 76 76 74 72 69 66 63 60 58 56 55 54 53 52 52 52 52 52 52 52 52 52 52 52 52 53 53 54 53 53 52 51
56 57 57 58 59 60 61 63 64 65 66 68 69 71 72 73 74 74 74 73 73 72 71 71 70 70 69 69 69 69 70 72 73 75 76 76 77 77 78 79 80 81 82 82 82 82 81 79 77 75 74 74 75 75 75 72 69 66 62 59 57 55 53 52 52 51 50 50 50 49 49 49 49 49 49 49 49 50 50 51 51 52 52 51 50 49
56 57 58 59 60 61 62 63 64 65 67 68 70 71 72 73 74 74 73 73 72 72 71 71 70 70 69 69 69 70 70 72 74 75 77 77 78 79 79 80 81 81 82 81 81 81 80 79 78 77 77 76 75 73 70 67 63 59 56 54 53 52 51 50 50 49 49 48 48 48 48 48 48 48 48 48 48 48 48 49 49 50 50 50 49 48
57 57 58 59 60 61 62 63 65 66 67 69 70 71 72 73 73 73 73 72 72 71 71 70 70 69 69 69 69 70 71 72 74 76 77 78 79 80 80 81 81 81 81 81 80 80 79 79 78 78 78 76 73 68 64 60 57 54 52 51 51 50 49 49 48 48 47 47 46 46 47 47 47 47 47 47 48 48 48 48 48 49 49 49 48 48
57 58 59 60 61 62 63 64 65 67 68 69 71 72 72 72 72 72 72 71 71 70 70 70 69 69 69 70 70 70 71 72 74 75 77 79 80 80 81 81 81 81 80 80 80 79 79 79 79 78 76 73 68 63 58 54 52 51 50 50 49 49 48 48 47 47 47 46 46 47 47 48 48 48 48 48 49 49 49 49 49 49 49 49 49 48
57 58 59 60 61 62 63 64 66 67 68 70 71 71 72 72 72 71 71 70 70 70 69 69 69 69 69 70 70 71 71 72 74 75 77 79 80 80 81 81 80 80 80 80 80 80 80 79 78 76 72 67 62 57 53 51 49 49 49 49 49 48 48 48 48 48 48 48 49 49 49 50 50 50 50 50 51 51 51 51 51 51 51 50 50 49
58 59 59 60 61 63 64 65 66 68 69 70 71 71 71 71 70 70 70 69 69 69 68 68 68 69 69 70 70 71 71 72 74 75 77 78 79 80 80 80 79 79 79 79 79 80 79 78 75 71 66 61 56 52 50 49 48 48 48 48 48 48 49 49 50 51 51 52 52 52 52 53 53 53 53 53 53 53 53 53 53 53 53 53 52 51
58 59 60 61 62 63 65 66 67 68 69 70 70 70 70 70 69 69 68 68 68 68 67 67 67 68 68 69 69 70 71 72 74 75 76 78 78 79 79 79 78 78 78 78 79 78 77 75 71 66 61 56 53 50 48 48 48 48 48 48 48 49 50 52 53 54 55 55 55 56 56 56 56 56 56 56 56 56 56 55 55 55 55 55 54 53
59 60 61 62 63 64 65 66 67 68 69 70 70 70 69 69 68 68 68 67 67 67 67 66 67 67 67 68 68 69 71 72 73 75 76 77 77 78 78 78 78 78 78 78 77 76 74 70 66 61 57 54 51 49 48 47 48 49 50 50 50 51 52 54 56 57 58 58 58 58 58 58 58 58 58 58 58 58 58 58 58 58 57 57 57 56
60 61 62 63 64 65 66 67 68 69 69 69 69 69 68 68 67 67 66 66 66 66 66 66 66 66 66 67 68 69 70 72 73 74 75 76 76 77 77 77 77 77 77 76 75 72 69 65 61 58 55 53 51 49 48 48 49 50 52 53 53 54 55 56 58 59 60 60 60 60 60 60 59 59 59 59 59 59 60 60 60 60 60 59 59 58
60 61 62 63 64 65 66 67 68 68 69 69 68 68 67 67 66 66 65 65 65 65 65 65 65 65 66 66 67 69 70 71 73 74 74 75 75 75 76 76 76 76 76 74 72 68 64 60 57 55 54 53 51 50 49 49 51 52 54 55 56 57 57 57 58 59 60 60 60 59 59 59 59 59 59 59 59 60 61 61 61 61 61 61 61 60
61 62 63 64 65 66 67 67 68 68 68 68 67 67 67 66 66 65 65 64 64 64 64 64 64 65 65 66 67 68 70 71 72 73 73 74 74 74 75 75 75 75 74 71 67 63 59 56 54 54 53 52 52 51 51 52 53 54 55 56 57 58 57 57 57 57 57 57 57 57 57 57 57 57 57 57 58 59 60 61 61 62 63 63 63 63
62 63 63 64 65 66 67 67 67 67 67 67 66 66 66 66 65 64 64 63 63 63 64 64 64 64 65 65 66 68 69 70 71 72 72 73 73 74 74 74 74 72 70 66 62 59 56 53 52 52 52 52 52 53 53 54 55 55 56 56 56 56 55 55 54 54 54 54 54 54 54 54 54 54 55 55 56 57 58 59 60 61 62 63 63 64
62 63 64 65 65 66 66 66 66 66 66 66 65 65 65 65 64 64 63 63 63 63 63 64 64 64 65 66 67 68 69 70 70 71 71 71 72 73 73 72 71 69 65 61 58 55 53 52 51 50 50 51 52 54 55 56 56 56 55 54 54 53 52 52 52 51 51 51 50 50 51 51 52 52 52 53 53 54 55 56 58 59 60 61 62 63
63 63 64 65 65 66 66 66 66 65 65 65 64 64 64 64 63 63 62 62 62 63 63 63 64 64 65 66 67 68 69 69 69 69 69 70 71 71 71 70 67 64 60 57 54 52 51 50 50 50 50 51 53 54 55 56 55 54 53 51 50 49 49 49 49 49 48 48 48 48 48 49 49 49 50 50 51 52 53 54 55 57 58 59 60 61
63 64 64 65 65 65 65 65 65 64 64 64 63 63 63 62 62 62 62 62 62 62 63 63 63 64 65 67 68 68 69 68 68 68 68 68 69 69 68 66 63 59 55 52 51 50 49 48 49 49 51 52 53 54 54 54 53 51 50 48 47 46 46 46 46 46 46 45 45 45 45 46 46 47 47 47 48 49 50 51 53 54 55 56 57 58
63 64 64 65 65 65 64 64 64 63 63 62 62 62 62 61 61 61 61 61 61 62 62 63 63 64 65 67 68 68 68 68 68 67 67 67 67 66 65 62 58 54 51 49 48 47 46 47 48 49 51 52 53 52 51 50 49 48 46 45 44 43 42 42 43 43 43 43 43 43 44 44 44 45 45 45 45 46 46 48 49 51 52 53 54 55
63 64 64 64 64 64 63 63 63 62 62 61 61 61 60 60 60 60 61 61 61 61 62 62 63 64 65 66 67 68 68 68 67 67 67 66 66 64 62 58 54 50 47 45 45 44 44 45 47 49 51 51 51 50 49 47 46 44 43 42 41 40 40 40 40 40 41 41 42 42 42 43 43 44 44 44 43 43 43 44 45 47 48 49 50 51
63 63 63 63 63 63 62 62 61 61 61 60 60 59 59 59 60 60 60 60 60 61 61 62 63 64 65 66 67 67 67 67 66 66 66 65 64 62 58 54 50 46 44 42 42 42 42 43 45 47 49 50 49 48 47 45 44 42 40 39 38 38 38 38 38 39 39 40 41 41 42 42 42 42 42 42 42 41 41 41 41 42 43 45 46 46
63 63 63 62 62 62 61 61 60 60 59 59 58 58 58 58 59 59 59 59 60 60 61 62 63 64 65 66 66 66 66 66 66 65 64 63 62 59 55 51 47 44 42 40 40 40 40 41 42 44 46 47 47 46 46 44 43 40 38 37 37 37 37 37 37 38 39 39 40 41 41 41 41 41 41 41 40 39 38 37 37 37 38 40 40 41
Wind_Direction
273 274 275 276 277 279 280 281 282 283 284 285 286 286 287 287 288 288 288 289 289 289 289 289 290 290 290 290 291 291 291 291 291 291 291 291 291 291 291 291 291 291 291 291 290 290 289 289 288 288 287 287 286 286 285 285 285 285 284 284 284 283 283 282 282 281 281 280 279 279 278 277 276 275 275 274 273 272 271 269 268 266 265 264 263 262
273 274 276 277 278 280 281 282 283 284 285 286 286 287 288 288 288 289 289 289 290 290 290 290 290 291 291 291 291 291 291 292 292 292 292 292 292 292 292 292 292 292 291 291 291 290 290 289 288 288 287 286 286 286 285 285 285 285 285 285 284 284 284 283 283 282 282 281 280 279 278 277 276 276 275 274 273 272 271 270 269 267 266 264 263 262
274 275 277 278 280 281 282 283 284 285 286 286 287 288 288 289 289 290 290 290 290 291 291 291 291 291 291 292 292 292 292 292 292 292 292 292 293 293 293 293 293 292 292 292 292 291 290 290 289 288 287 286 286 286 285 285 285 286 286 286 286 285 285 285 284 284 283 282 281 280 279 278 277 276 275 274 273 272 271 270 269 268 267 265 264 262
275 277 278 280 281 282 283 284 285 286 287 287 288 288 289 289 290 290 290 291 291 291 291 291 291 292 292 292 292 292 293 293 293 293 293 293 293 293 293 293 293 293 293 293 292 292 291 290 289 288 287 286 286 286 286 286 286 287 287 287 287 287 287 287 286 286 285 284 283 282 281 279 278 277 275 274 273 272 271 270 269 268 267 266 264 263
276 278 279 281 282 283 284 285 286 287 287 288 288 289 289 290 290 290 290 291 291 291 291 292 292 292 292 292 292 293 293 293 293 293 293 294 294 294 294 294 294 294 294 294 293 292 291 290 289 288 287 286 286 287 287 287 288 288 289 289 289 289 289 289 288 288 287 286 285 284 282 281 280 278 276 275 273 272 270 269 268 267 266 265 264 263
278 279 280 281 282 284 285 285 286 287 288 288 289 289 290 290 290 291 291 291 291 291 292 292 292 292 292 293 293 293 293 293 293 293 294 294 294 294 294 294 294 294 294 294 293 292 291 290 288 287 286 286 286 287 288 288 289 290 290 290 291 291 291 290 290 289 289 288 287 285 284 283 281 279 278 276 274 272 271 269 268 266 265 264 264 263
279 280 281 282 284 285 286 286 287 288 288 289 289 290 290 291 291 291 291 292 292 292 292 292 292 293 293 293 293 293 293 293 293 293 294 294 294 294 294 294 294 294 294 294 293 292 291 289 288 287 286 286 287 287 288 289 290 290 291 291 292 292 292 291 291 290 290 289 288 287 285 284 282 280 279 277 275 273 271 270 268 266 265 263 262 262
280 281 283 284 285 286 286 287 288 289 289 289 290 290 291 291 291 292 292 292 292 292 292 293 293 293 293 293 293 293 293 293 293 293 293 294 294 294 294 294 294 294 294 294 293 292 290 289 287 286 286 286 287 288 289 290 291 291 292 292 292 292 292 292 291 291 290 289 288 287 286 284 283 281 279 277 276 274 272 270 268 266 265 263 262 261
282 283 284 285 286 287 287 288 289 289 290 290 291 291 291 291 292 292 292 293 293 293 293 293 293 293 293 293 293 293 293 293 293 293 293 294 294 294 294 294 294 294 294 294 293 292 290 289 287 287 287 287 288 289 290 291 292 292 293 293 293 293 293 292 292 291 290 289 288 287 286 284 283 281 279 278 276 274 272 270 269 267 265 263 262 260
283 284 285 286 287 288 288 289 290 290 291 291 292 292 292 292 293 293 293 293 293 293 293 293 294 294 294 294 293 294 294 293 293 294 294 294 294 294 294 294 294 294 294 294 293 291 290 289 288 287 287 288 289 290 291 292 292 293 293 293 293 293 293 292 292 291 290 289 288 287 286 284 283 281 279 277 276 274 272 270 269 267 265 263 262 260
284 285 286 287 288 288 289 290 291 292 292 293 293 293 294 294 294 294 294 293 294 294 294 294 294 294 294 294 294 294 294 294 294 294 294 294 294 294 294 294 294 294 294 293 292 291 290 289 288 288 288 289 290 291 292 292 293 293 293 294 293 293 293 292 292 291 290 289 288 287 286 284 283 281 279 277 275 274 272 270 268 267 265 264 262 260
285 286 287 288 289 289 290 291 292 293 293 294 294 294 295 295 295 295 295 295 295 295 295 295 295 295 295 294 294 294 294 294 294 294 294 294 293 294 294 294 294 294 293 293 292 291 290 289 289 289 289 290 291 292 292 293 293 293 293 293 293 293 292 292 291 291 290 289 288 287 285 284 282 281 279 277 275 274 272 270 268 267 265 264 262 260
286 287 288 288 289 290 291 292 292 293 294 294 295 295 296 296 296 296 296 296 296 296 296 295 295 295 295 295 294 294 294 294 293 293 293 293 294 294 294 294 294 293 293 292 291 290 289 289 289 289 290 290 291 292 292 293 293 293 293 293 293 292 292 291 291 290 289 288 287 286 284 283 282 280 278 277 275 273 272 270 268 266 265 263 262 260
286 287 288 289 290 291 292 292 293 294 294 295 296 297 297 297 298 298 298 297 297 297 297 296 296 296 296 295 295 294 294 294 293 293 294 294 294 294 294 293 293 293 292 291 290 290 289 289 289 290 290 291 291 292 292 293 293 293 293 292 292 292 291 291 290 289 288 287 286 285 283 282 281 279 278 276 275 273 271 270 268 266 265 263 262 260
287 288 288 289 290 291 292 293 294 294 295 297 297 298 299 299 299 299 299 299 298 298 298 297 297 296 296 296 295 295 294 294 294 294 294 294 294 294 294 293 293 292 292 291 290 289 289 289 290 290 291 291 292 292 292 292 293 292 292 292 292 291 291 290 289 288 287 286 285 283 282 281 279 278 277 275 274 273 271 270 268 266 265 263 261 260
287 288 289 290 290 291 292 293 294 295 296 298 299 299 300 300 300 300 300 300 299 299 298 298 297 297 296 296 295 295 294 294 294 294 294 294 294 294 294 293 292 292 291 290 290 290 290 290 290 291 291 292 292 292 292 292 293 293 292 292 292 291 290 290 289 288 287 285 284 283 281 280 278 277 276 274 273 272 271 269 268 266 265 263 261 260
287 288 289 290 290 291 292 293 294 296 297 299 300 300 301 301 301 301 301 301 300 300 299 298 298 297 296 295 295 295 295 294 294 294 295 295 295 294 293 293 292 291 291 290 290 290 290 290 291 291 292 292 292 292 293 293 293 292 292 292 291 291 290 289 288 287 286 285 283 282 281 279 278 276 275 274 273 271 270 269 268 266 265 263 262 260
287 288 289 290 290 291 292 293 295 296 298 299 300 301 302 302 303 303 302 302 301 300 300 299 298 297 297 296 295 295 295 295 295 295 295 295 295 294 293 293 292 291 291 291 291 291 291 291 292 292 293 293 293 293 293 293 293 293 292 292 291 290 289 288 287 286 285 284 283 281 280 279 278 276 275 274 272 271 270 268 267 266 265 263 262 260
287 288 289 290 290 291 292 294 295 296 298 299 300 301 302 303 303 303 303 303 302 301 300 299 299 298 297 297 296 296 296 296 296 296 296 296 295 294 293 292 292 292 292 291 292 292 292 293 293 294 294 294 294 294 294 294 293 293 292 292 291 290 289 288 286 285 284 283 282 281 280 278 277 276 275 274 272 271 270 268 267 266 264 263 262 260
287 288 289 290 291 291 293 294 295 296 298 299 300 301 302 303 304 304 304 304 303 302 301 300 299 299 298 297 297 297 297 297 297 297 297 296 296 295 294 293 292 292 292 293 293 293 294 294 295 295 295 295 295 295 295 294 294 293 293 292 291 289 288 287 286 284 283 282 281 280 279 278 277 276 275 273 272 271 270 269 267 266 264 263 262 260
287 288 289 290 291 292 293 294 295 297 298 299 300 302 303 304 305 305 305 305 304 303 302 301 300 299 299 298 298 298 298 298 298 297 297 297 296 295 294 294 293 294 294 294 294 295 295 296 296 296 296 296 296 296 295 295 294 293 293 292 290 289 288 287 285 284 283 282 281 280 279 277 276 275 274 273 272 271 270 269 267 266 265 263 262 261
288 288 289 290 291 292 293 294 295 297 298 299 301 302 303 305 305 306 306 306 305 304 303 302 301 300 299 299 299 299 299 299 298 298 298 297 296 296 295 295 295 295 295 296 296 296 296 297 297 297 297 297 297 296 296 295 295 294 293 291 290 289 288 287 285 284 283 282 281 280 279 277 276 275 274 273 272 271 270 268 267 266 265 264 262 261
288 288 289 290 291 292 293 294 295 297 298 299 301 303 304 305 306 306 307 306 306 305 304 303 302 301 300 300 300 300 300 299 299 299 298 298 297 297 296 296 296 296 297 297 297 297 297 298 298 298 298 298 297 297 296 296 295 294 293 292 290 289 288 287 286 285 284 282 281 280 279 278 276 275 274 273 272 270 269 268 267 266 265 264 263 261
288 289 289 290 291 292 293 294 295 297 298 300 301 303 304 305 306 307 307 307 307 306 305 304 302 301 301 301 301 301 300 300 299 299 298 298 298 298 297 297 297 297 298 298 298 298 299 299 299 299 299 299 298 298 297 296 295 294 293 292 291 290 289 288 286 285 284 283 282 280 279 278 277 275 274 273 272 271 269 268 267 266 265 264 262 261
288 289 290 291 291 292 293 294 295 297 298 300 301 303 304 305 306 307 307 308 307 307 306 304 303 302 302 301 301 301 301 300 299 299 299 299 299 299 299 298 298 298 299 299 299 299 300 300 300 300 300 299 299 298 297 296 295 294 293 292 291 290 289 288 287 286 285 283 282 281 280 278 277 276 275 273 272 271 270 268 267 266 265 263 262 261
288 289 290 291 291 292 293 294 295 297 298 300 301 303 304 305 306 307 307 308 308 307 306 305 304 303 303 302 302 302 301 300 300 299 299 299 299 299 299 299 299 300 300 300 300 301 301 301 301 301 300 300 299 298 297 296 295 294 293 292 291 290 289 288 287 286 285 284 283 281 280 279 277 276 275 274 272 271 270 268 267 266 264 263 262 260
289 289 290 291 291 292 293 294 295 297 298 300 301 303 304 305 306 307 307 308 308 307 307 305 305 304 303 303 303 302 302 301 300 299 300 300 300 301 301 301 300 301 301 301 301 302 302 302 302 302 301 300 300 299 298 297 296 295 294 293 292 291 290 289 287 286 285 284 282 281 280 278 277 276 275 273 272 271 270 269 267 266 264 263 262 260
289 290 290 291 292 292 293 295 296 297 299 300 302 303 304 305 306 307 308 308 308 307 307 306 305 304 304 303 303 302 302 301 300 300 300 301 301 302 302 302 302 302 302 302 302 303 303 303 303 303 302 301 300 299 298 297 296 295 294 293 292 291 290 289 288 286 285 283 281 280 279 277 276 275 274 273 273 272 271 269 268 267 265 264 262 261
289 290 291 291 292 293 294 295 297 298 300 301 302 304 305 306 307 307 308 308 308 307 307 306 305 305 304 304 303 303 302 301 301 301 301 302 302 303 303 303 303 303 303 303 304 304 304 304 304 303 302 301 300 299 298 298 297 296 295 294 293 292 290 289 287 285 284 282 281 279 278 277 276 275 275 274 273 273 272 271 270 269 267 265 264 262
290 290 291 292 293 294 295 296 298 299 300 302 303 304 305 306 307 308 308 308 308 307 306 306 305 305 304 304 303 303 302 302 302 302 302 303 303 304 304 304 304 305 305 305 305 305 305 305 304 304 303 302 301 300 299 298 298 297 296 295 293 292 290 288 286 285 283 282 280 279 278 278 277 276 276 275 275 274 273 272 271 270 269 267 266 264
290 291 292 293 294 295 296 297 299 300 301 303 304 305 306 307 307 308 308 308 307 307 306 306 305 305 305 304 304 303 303 303 303 303 304 304 305 305 305 306 306 306 306 306 306 306 306 306 305 304 303 302 302 301 300 300 299 298 297 295 294 292 290 288 286 284 283 282 281 280 279 278 278 277 277 276 275 274 273 272 271 271 270 268 267 265
291 292 293 294 295 296 297 298 300 301 302 303 304 305 306 307 307 307 307 307 307 307 306 306 305 305 305 304 304 304 304 304 304 304 305 305 306 306 306 307 307 307 307 307 307 307 307 307 306 305 304 303 303 302 302 301 300 299 297 295 293 291 289 287 286 285 284 282 281 280 280 279 278 277 276 276 275 274 273 272 271 270 269 268 267 266
292 292 293 294 295 297 298 299 300 301 303 304 305 306 306 307 307 307 307 307 307 306 306 306 305 305 305 305 305 305 305 305 305 306 306 306 307 307 307 308 308 308 308 308 308 308 308 308 307 306 306 305 304 304 303 302 301 299 297 295 293 291 289 288 287 286 285 284 282 281 280 279 278 277 276 275 274 273 272 271 270 270 269 268 267 265
292 293 294 295 296 297 298 300 301 302 303 304 305 306 306 306 307 307 307 306 306 306 306 306 305 305 305 305 306 306 306 306 307 307 307 307 308 308 309 309 309 309 309 309 309 308 308 308 308 308 307 306 306 305 304 303 301 299 297 295 293 292 290 289 288 287 286 285 283 282 280 279 278 276 275 274 273 272 271 270 270 269 268 267 266 265
292 293 294 295 296 298 299 300 301 302 303 304 305 305 306 306 306 306 306 306 306 306 306 306 306 306 306 306 307 307 307 307 308 308 308 308 309 309 310 310 310 310 310 310 309 309 309 309 309 308 308 308 307 307 305 303 301 299 297 295 294 292 292 291 290 289 287 286 284 283 282 280 278 277 275 274 273 271 270 269 268 268 267 266 265 264
292 293 294 296 297 298 299 300 302 303 304 304 305 305 305 306 306 306 306 306 306 306 306 306 306 306 306 307 308 308 308 309 309 309 309 309 310 310 311 311 311 311 311 310 310 309 309 309 309 309 309 309 309 308 305 303 300 299 297 296 294 294 293 292 291 290 289 288 287 285 283 282 280 278 276 274 272 271 269 268 267 266 265 264 263 262
292 293 295 296 297 298 300 301 302 303 304 304 305 305 305 305 305 305 305 305 306 306 306 306 306 307 307 308 309 309 309 310 310 310 310 310 311 311 312 312 312 311 311 310 310 310 310 310 310 310 310 310 309 308 306 303 300 299 297 297 296 295 295 294 294 293 292 291 289 287 286 284 282 279 277 275 273 271 269 267 266 265 264 262 261 260
292 294 295 296 297 299 300 301 302 303 304 304 304 304 305 305 305 305 305 305 305 306 306 306 306 307 308 309 310 310 310 311 311 311 311 311 311 312 312 312 312 312 311 311 311 311 311 311 311 311 311 310 309 308 306 304 302 300 298 298 297 298 297 297 296 295 294 292 291 289 287 285 283 281 279 277 275 272 270 268 266 265 263 261 260 259
293 294 295 297 298 299 300 301 302 303 303 304 304 304 304 304 305 305 305 305 305 305 306 306 307 308 309 310 310 311 311 311 311 312 312 312 312 312 312 312 312 312 312 312 312 312 312 312 312 312 312 311 309 307 306 305 303 302 300 300 299 299 299 299 298 297 295 293 291 289 287 285 284 282 280 278 276 274 272 270 268 266 264 262 260 258
293 295 296 297 298 300 301 302 302 303 303 303 304 304 304 304 304 305 305 305 305 305 306 306 307 308 309 310 311 311 311 312 312 312 312 312 312 312 312 312 312 312 312 312 312 312 313 313 313 313 312 311 309 308 307 306 305 304 303 302 302 301 301 300 298 297 295 293 291 289 287 285 283 282 280 278 277 275 273 271 269 267 264 262 260 258
294 295 297 298 299 300 301 302 303 303 303 303 303 304 304 304 304 304 305 305 305 305 306 307 308 309 310 310 311 311 312 312 312 312 312 312 312 312 312 312 312 313 313 313 313 313 313 313 313 312 312 311 310 309 309 308 307 305 305 304 303 302 301 299 298 296 294 292 291 289 287 285 283 282 280 278 276 274 272 271 269 266 264 262 260 258
295 296 297 298 299 300 301 302 303 303 303 303 303 303 304 304 304 304 304 305 305 305 306 307 308 309 310 311 311 312 312 312 312 313 313 313 313 313 313 313 313 313 314 314 314 314 314 314 313 313 312 312 311 311 310 309 308 307 306 305 304 302 300 299 297 296 294 293 291 290 288 286 284 282 280 278 276 274 272 270 268 266 263 261 259 257
295 297 298 299 300 301 302 302 302 303 303 303 303 303 304 304 304 304 305 305 305 306 307 308 309 310 311 311 312 312 312 313 313 313 313 313 313 313 313 314 314 314 314 314 315 315 315 314 314 313 313 312 312 312 311 310 308 307 306 305 304 302 301 299 298 296 295 294 293 292 291 289 287 284 282 280 277 275 273 270 268 265 263 260 258 256
296 297 298 299 300 301 302 302 302 302 303 303 303 303 304 304 304 304 305 305 306 307 308 309 310 310 311 312 312 312 313 313 313 313 314 314 314 314 314 315 315 315 315 315 315 315 315 315 314 314 314 313 312 312 311 310 309 308 307 306 305 304 303 302 300 299 298 297 296 295 294 292 290 288 285 283 281 278 275 272 269 266 263 260 257 255
297 298 299 300 300 301 301 302 302 302 302 303 303 303 304 304 304 305 305 306 307 308 309 310 310 311 312 312 313 313 313 314 314 314 314 314 315 315 315 315 315 315 315 315 316 316 316 316 315 315 314 313 313 312 311 311 310 310 309 308 308 307 306 305 304 302 301 300 299 298 296 294 292 290 288 286 284 281 278 275 272 269 265 261 258 255
297 298 299 300 300 301 301 301 302 302 302 303 303 303 304 304 304 305 306 307 308 308 309 310 311 312 312 313 313 313 314 314 314 315 315 315 315 316 316 316 316 316 316 316 316 316 317 317 316 316 314 313 313 312 312 312 312 312 312 311 311 310 309 308 307 305 304 303 301 299 297 295 294 292 290 288 286 283 281 278 275 271 267 263 259 255
297 298 299 300 300 301 301 301 302 302 302 303 303 304 304 304 305 305 306 307 308 309 310 311 312 313 313 314 314 314 315 315 315 316 316 316 316 316 316 316 316 316 316 316 317 317 318 318 317 316 315 314 313 314 314 315 315 315 316 315 314 313 311 310 308 307 306 305 304 302 300 298 296 294 292 290 288 286 283 280 277 273 269 265 261 256
297 298 299 300 300 300 301 301 302 302 302 303 303 304 304 304 305 306 307 308 309 310 311 312 313 313 314 314 315 315 315 316 316 317 317 317 317 317 317 316 316 316 316 317 318 318 319 319 318 317 315 315 315 316 317 318 318 319 319 318 316 314 313 312 311 310 309 308 307 305 303 302 300 298 296 294 292 289 286 283 279 275 271 267 262 257
298 298 299 300 300 300 301 301 302 302 302 303 303 304 304 305 306 307 308 309 310 311 312 312 313 314 314 315 315 316 316 317 317 317 318 318 318 317 317 317 317 317 317 318 319 319 319 319 319 318 317 317 318 319 320 321 322 322 322 320 318 316 315 314 314 313 313 312 310 309 307 306 304 302 300 298 295 293 290 286 282 278 273 268 263 258
298 299 299 299 300 300 300 301 302 302 302 303 303 304 304 305 306 307 308 309 310 311 312 313 314 314 315 315 316 316 317 318 318 318 318 318 318 318 318 318 317 317 318 319 320 320 320 320 320 319 319 319 320 322 324 325 326 326 324 322 320 319 319 318 318 317 317 316 314 313 311 310 308 306 304 302 299 296 293 290 286 281 275 269 264 258
298 298 299 299 300 300 300 301 301 302 302 303 303 304 305 305 307 308 309 310 311 312 313 314 314 315 315 316 317 317 318 318 318 319 319 319 319 319 318 318 318 318 319 320 320 321 321 321 322 321 320 321 323 325 327 329 329 329 327 325 324 323 323 322 322 321 321 320 319 317 316 314 312 310 308 306 303 301 297 294 289 283 277 270 264 258
Height
5675 5674 5673 5673 5672 5671 5670 5669 5669 5668 5667 5667 5666 5665 5664 5663 5662 5661 5660 5659 5659 5658 5657 5655 5654 5653 5652 5651 5650 5649 5648 5647 5646 5645 5644 5643 5642 5641 5640 5639 5638 5637 5636 5635 5634 5634 5633 5632 5631 5630 5629 5628 5627 5627 5626 5625 5625 5624 5624 5624 5623 5623 5623 5622 5622 5622 5621 5621 5621 5621 5621 5621 5620 5620 5620 5621 5621 5621 5622 5622 5623 5624 5624 5625 5625 5626
5672 5671 5670 5669 5669 5668 5667 5666 5666 5665 5664 5664 5663 5662 5661 5659 5659 5658 5657 5656 5655 5654 5653 5652 5650 5649 5648 5647 5646 5644 5644 5642 5641 5640 5639 5639 5638 5636 5635 5634 5634 5633 5631 5630 5629 5629 5627 5626 5625 5625 5624 5623 5622 5622 5621 5620 5620 5619 5619 5619 5618 5618 5617 5617 5617 5616 5616 5616 5616 5616 5615 5615 5615 5615 5615 5615 5615 5615 5616 5616 5616 5617 5618 5619 5619 5620
5669 5668 5668 5667 5666 5665 5664 5663 5662 5662 5661 5660 5659 5658 5657 5656 5655 5654 5653 5652 5651 5650 5649 5648 5647 5645 5644 5643 5641 5640 5639 5638 5637 5636 5635 5634 5633 5632 5631 5629 5629 5627 5626 5625 5624 5623 5622 5621 5620 5619 5619 5618 5617 5616 5616 5615 5615 5614 5614 5613 5613 5612 5612 5611 5611 5611 5610 5610 5610 5610 5610 5610 5610 5610 5610 5610 5610 5610 5610 5610 5610 5611 5611 5612 5613 5614
5666 5665 5664 5664 5663 5661 5660 5659 5659 5658 5658 5657 5656 5655 5654 5653 5652 5650 5649 5648 5647 5646 5645 5644 5643 5641 5640 5639 5637 5636 5635 5634 5632 5631 5630 5629 5628 5627 5625 5624 5623 5622 5621 5620 5619 5618 5616 5615 5614 5614 5613 5612 5611 5611 5610 5609 5609 5609 5608 5608 5607 5606 5606 5606 5605 5605 5604 5604 5604 5604 5604 5604 5604 5604 5604 5604 5604 5604 5604 5604 5604 5605 5605 5606 5606 5607
5663 5662 5661 5660 5659 5658 5657 5656 5655 5654 5654 5653 5652 5651 5650 5649 5648 5647 5646 5645 5644 5642 5641 5640 5639 5637 5636 5634 5633 5632 5630 5629 5628 5626 5625 5624 5623 5622 5620 5619 5618 5617 5615 5614 5613 5612 5611 5609 5609 5608 5607 5606 5605 5605 5604 5604 5603 5603 5602 5601 5601 5600 5600 5599 5599 5599 5598 5598 5597 5597 5597 5597 5597 5597 5597 5597 5597 5598 5598 5598 5599 5599 5599 5599 5600 5601
5659 5659 5658 5657 5656 5655 5654 5653 5652 5651 5650 5649 5649 5648 5647 5645 5644 5643 5642 5641 5640 5639 5637 5636 5634 5633 5632 5630 5629 5628 5626 5625 5623 5622 5621 5619 5618 5617 5616 5614 5613 5612 5610 5609 5608 5606 5605 5604 5603 5602 5601 5600 5599 5599 5598 5598 5597 5596 5596 5595 5594 5594 5593 5593 5592 5592 5591 5591 5590 5590 5590 5589 5589 5589 5589 5590 5590 5590 5591 5591 5592 5592 5593 5593 5594 5594
5656 5655 5654 5653 5652 5651 5650 5649 5648 5648 5647 5646 5645 5644 5643 5642 5641 5640 5639 5637 5636 5635 5633 5632 5630 5629 5627 5626 5624 5623 5622 5620 5619 5618 5616 5615 5614 5612 5611 5609 5608 5606 5605 5604 5602 5601 5599 5598 5597 5596 5595 5594 5594 5593 5592 5591 5590 5590 5589 5589 5588 5587 5586 5586 5585 5584 5584 5583 5583 5582 5582 5582 5582 5581 5582 5582 5582 5582 5583 5584 5584 5585 5585 5586 5587 5587
5652 5651 5650 5649 5649 5648 5647 5645 5644 5644 5643 5643 5642 5641 5640 5639 5637 5636 5634 5633 5632 5631 5629 5628 5626 5625 5623 5621 5620 5619 5617 5616 5614 5613 5611 5610 5609 5607 5606 5604 5603 5601 5600 5598 5597 5595 5594 5593 5592 5591 5589 5589 5588 5587 5586 5585 5584 5583 5582 5582 5581 5580 5579 5579 5578 5577 5576 5576 5575 5574 5574 5574 5573 5573 5573 5573 5574 5574 5574 5575 5576 5577 5578 5578 5579 5580
5648 5647 5647 5646 5645 5644 5643 5642 5641 5640 5639 5638 5638 5637 5636 5635 5634 5633 5631 5629 5628 5627 5625 5624 5622 5621 5619 5617 5615 5614 5612 5611 5609 5608 5607 5605 5604 5602 5601 5599 5598 5596 5594 5593 5591 5590 5589 5587 5586 5585 5584 5583 5582 5580 5579 5578 5577 5576 5575 5574 5573 5573 5572 5571 5570 5569 5569 5568 5567 5566 5566 5565 5565 5564 5564 5564 5564 5565 5566 5566 5567 5568 5569 5570 5571 5572
5644 5644 5643 5642 5641 5640 5639 5638 5637 5636 5635 5634 5633 5633 5632 5631 5630 5629 5628 5626 5624 5622 5621 5619 5618 5617 5614 5613 5611 5609 5608 5606 5605 5604 5602 5600 5599 5597 5596 5594 5593 5591 5589 5588 5586 5584 5583 5582 5580 5579 5578 5577 5575 5574 5573 5572 5570 5569 5568 5567 5565 5564 5564 5562 5562 5561 5560 5559 5558 5558 5557 5556 5556 5555 5555 5555 5555 5556 5556 5557 5558 5559 5560 5561 5562 5564
5641 5640 5639 5638 5637 5636 5635 5634 5633 5632 5631 5630 5629 5628 5627 5626 5625 5624 5623 5622 5620 5619 5617 5615 5614 5612 5610 5608 5606 5604 5603 5601 5600 5599 5597 5595 5594 5592 5591 5589 5588 5586 5584 5583 5581 5579 5578 5576 5575 5574 5572 5571 5569 5568 5566 5565 5563 5562 5560 5559 5558 5556 5555 5554 5553 5552 5551 5550 5549 5548 5548 5547 5546 5546 5546 5546 5546 5546 5547 5548 5549 5549 5550 5552 5553 5554
5637 5636 5635 5634 5633 5632 5631 5630 5629 5628 5627 5626 5625 5624 5623 5622 5620 5619 5618 5617 5616 5614 5613 5611 5609 5607 5605 5603 5601 5600 5599 5597 5595 5594 5593 5591 5589 5587 5585 5584 5583 5581 5579 5578 5576 5574 5573 5571 5570 5568 5567 5565 5564 5562 5560 5558 5556 5555 5553 5551 5550 5549 5547 5545 5544 5543 5542 5541 5540 5539 5538 5537 5537 5536 5536 5536 5536 5537 5537 5538 5539 5540 5541 5542 5544 5545
5633 5632 5631 5630 5629 5628 5627 5626 5625 5624 5623 5622 5620 5619 5618 5617 5616 5614 5613 5612 5611 5609 5608 5607 5605 5603 5601 5598 5596 5594 5594 5592 5591 5590 5588 5586 5584 5582 5580 5579 5578 5576 5574 5573 5571 5569 5568 5566 5564 5563 5562 5559 5558 5556 5554 5552 5550 5548 5546 5544 5542 5541 5539 5537 5536 5534 5533 5532 5531 5529 5529 5528 5527 5527 5526 5526 5526 5527 5527 5528 5529 5530 5531 5533 5534 5535
5629 5628 5627 5625 5624 5624 5623 5622 5621 5619 5619 5618 5616 5615 5614 5613 5611 5610 5608 5607 5606 5604 5603 5602 5600 5599 5596 5594 5591 5589 5588 5587 5586 5585 5583 5581 5579 5577 5575 5574 5572 5571 5569 5567 5566 5564 5563 5561 5559 5558 5556 5554 5552 5549 5548 5545 5543 5541 5539 5536 5534 5533 5531 5529 5528 5526 5524 5523 5522 5520 5519 5519 5518 5517 5517 5516 5516 5517 5517 5518 5519 5520 5521 5523 5524 5526
5624 5624 5622 5621 5620 5619 5619 5618 5616 5615 5614 5613 5612 5611 5609 5608 5607 5605 5604 5602 5601 5599 5598 5596 5595 5594 5592 5589 5586 5584 5583 5582 5581 5580 5579 5577 5574 5571 5569 5568 5567 5566 5564 5562 5560 5559 5558 5556 5554 5552 5551 5549 5546 5544 5541 5539 5536 5534 5531 5529 5526 5524 5522 5520 5519 5517 5515 5514 5513 5512 5510 5509 5509 5508 5507 5507 5507 5507 5507 5508 5509 5509 5511 5512 5514 5515
5620 5619 5618 5617 5616 5615 5614 5613 5612 5611 5610 5609 5608 5606 5605 5603 5602 5600 5599 5597 5595 5594 5593 5591 5590 5589 5587 5584 5581 5578 5577 5576 5575 5575 5574 5572 5569 5566 5564 5562 5561 5560 5559 5557 5555 5554 5552 5550 5549 5547 5545 5543 5540 5538 5535 5532 5529 5526 5524 5521 5519 5516 5514 5512 5509 5508 5506 5505 5504 5502 5501 5500 5499 5499 5498 5498 5497 5497 5498 5498 5499 5499 5500 5502 5503 5505
5616 5615 5614 5613 5612 5611 5610 5609 5608 5607 5606 5604 5603 5602 5600 5599 5597 5596 5594 5592 5590 5589 5587 5586 5584 5583 5582 5580 5577 5574 5571 5570 5569 5569 5569 5566 5564 5561 5558 5556 5555 5555 5554 5552 5550 5548 5546 5544 5543 5541 5539 5536 5534 5531 5528 5525 5522 5519 5517 5514 5511 5508 5505 5503 5501 5499 5497 5496 5494 5493 5492 5491 5490 5489 5489 5489 5488 5488 5488 5488 5489 5489 5490 5492 5493 5495
5612 5611 5610 5609 5608 5607 5606 5604 5604 5602 5601 5600 5599 5597 5596 5594 5593 5591 5589 5587 5585 5584 5582 5580 5579 5577 5576 5574 5572 5569 5566 5564 5563 5563 5563 5561 5559 5556 5553 5550 5549 5549 5548 5547 5544 5542 5540 5539 5537 5535 5532 5529 5527 5524 5521 5518 5515 5512 5509 5506 5503 5500 5498 5495 5493 5490 5489 5487 5485 5484 5483 5482 5481 5480 5480 5479 5479 5479 5479 5479 5479 5480 5481 5482 5483 5485
5609 5607 5606 5605 5604 5603 5602 5600 5599 5598 5597 5596 5594 5593 5591 5590 5588 5586 5584 5582 5580 5578 5576 5574 5573 5571 5570 5568 5565 5563 5561 5558 5557 5556 5556 5555 5553 5550 5547 5544 5543 5543 5542 5541 5538 5536 5534 5532 5530 5528 5525 5522 5519 5516 5513 5510 5507 5504 5501 5498 5495 5493 5490 5487 5485 5483 5480 5479 5477 5476 5474 5473 5472 5471 5471 5470 5470 5470 5470 5470 5470 5471 5471 5472 5473 5475
5604 5603 5602 5601 5599 5599 5597 5596 5595 5593 5592 5591 5590 5588 5587 5585 5584 5581 5579 5577 5575 5573 5571 5569 5567 5565 5564 5562 5559 5557 5554 5552 5550 5549 5549 5548 5547 5544 5541 5538 5537 5537 5536 5534 5532 5529 5527 5525 5523 5521 5518 5514 5511 5508 5505 5502 5499 5495 5493 5490 5487 5484 5482 5479 5477 5475 5473 5471 5469 5468 5466 5465 5464 5463 5462 5461 5461 5460 5460 5460 5461 5461 5462 5463 5464 5465
5600 5599 5598 5597 5595 5594 5593 5592 5590 5589 5587 5586 5585 5584 5582 5580 5579 5576 5574 5572 5570 5568 5566 5564 5562 5560 5558 5555 5553 5550 5548 5545 5543 5542 5542 5541 5540 5538 5535 5532 5531 5530 5530 5528 5526 5523 5520 5518 5516 5513 5510 5507 5503 5500 5496 5493 5490 5487 5484 5481 5478 5476 5473 5471 5469 5467 5464 5463 5461 5459 5458 5456 5455 5454 5453 5452 5451 5451 5451 5451 5451 5452 5452 5453 5454 5456
5596 5594 5593 5592 5591 5589 5588 5587 5585 5584 5582 5581 5580 5579 5577 5575 5574 5571 5569 5567 5565 5563 5561 5559 5556 5554 5552 5549 5547 5544 5541 5538 5536 5534 5534 5534 5534 5532 5529 5526 5524 5524 5523 5521 5519 5516 5514 5511 5508 5505 5502 5499 5495 5491 5488 5484 5481 5478 5475 5472 5469 5467 5465 5462 5460 5458 5456 5454 5452 5450 5449 5447 5446 5445 5444 5443 5442 5442 5441 5441 5441 5442 5443 5444 5445 5446
5591 5590 5589 5587 5586 5584 5583 5582 5580 5579 5577 5576 5574 5573 5572 5570 5568 5566 5564 5562 5560 5558 5556 5554 5551 5549 5546 5543 5540 5538 5535 5532 5529 5527 5526 5525 5526 5526 5524 5520 5517 5516 5516 5514 5512 5509 5506 5504 5501 5498 5494 5490 5487 5483 5479 5476 5472 5469 5466 5464 5461 5459 5456 5454 5451 5449 5447 5445 5443 5441 5439 5438 5436 5435 5434 5433 5433 5432 5432 5432 5432 5433 5433 5434 5435 5437
5586 5585 5584 5583 5581 5580 5579 5577 5575 5574 5573 5571 5569 5568 5566 5565 5563 5561 5559 5556 5554 5552 5550 5548 5546 5543 5541 5538 5535 5532 5529 5525 5522 5520 5519 5518 5519 5519 5517 5513 5510 5509 5509 5508 5504 5501 5499 5496 5494 5490 5486 5482 5478 5474 5471 5467 5464 5461 5458 5455 5452 5450 5447 5445 5442 5440 5437 5435 5433 5431 5429 5428 5426 5425 5424 5423 5423 5422 5422 5422 5422 5423 5424 5424 5426 5427
5582 5581 5579 5578 5577 5575 5574 5572 5571 5569 5568 5566 5565 5563 5561 5560 5558 5555 5553 5550 5548 5546 5544 5542 5540 5537 5535 5532 5529 5526 5523 5519 5516 5513 5512 5511 5511 5512 5511 5507 5503 5501 5501 5500 5498 5494 5491 5488 5485 5482 5478 5474 5470 5466 5462 5459 5455 5452 5449 5447 5444 5441 5438 5436 5433 5430 5428 5425 5423 5421 5419 5417 5416 5414 5414 5413 5412 5412 5411 5411 5412 5412 5413 5414 5415 5417
5577 5576 5575 5574 5572 5571 5569 5568 5566 5564 5563 5561 5559 5558 5556 5554 5552 5550 5548 5545 5543 5540 5538 5536 5533 5531 5529 5526 5523 5520 5517 5513 5509 5506 5505 5504 5503 5504 5504 5500 5496 5494 5493 5492 5490 5487 5483 5480 5477 5474 5470 5465 5461 5458 5454 5450 5447 5444 5441 5438 5435 5432 5429 5426 5424 5420 5418 5415 5413 5410 5408 5406 5405 5404 5403 5402 5401 5401 5401 5401 5401 5401 5402 5403 5405 5406
5573 5572 5570 5569 5568 5566 5564 5563 5561 5559 5558 5556 5554 5552 5551 5549 5547 5544 5542 5540 5537 5534 5531 5529 5527 5525 5523 5520 5517 5514 5511 5506 5503 5500 5498 5497 5496 5496 5495 5493 5489 5486 5484 5483 5483 5480 5476 5472 5469 5465 5461 5457 5453 5449 5446 5442 5439 5436 5433 5430 5427 5424 5420 5417 5414 5411 5408 5405 5403 5400 5398 5396 5394 5393 5392 5391 5391 5390 5390 5390 5390 5390 5391 5392 5394 5395
5569 5567 5566 5564 5563 5561 5560 5558 5556 5554 5553 5551 5549 5547 5545 5543 5540 5538 5536 5534 5531 5528 5525 5523 5521 5518 5516 5514 5512 5509 5505 5500 5496 5493 5491 5490 5489 5488 5487 5484 5481 5478 5475 5474 5474 5473 5470 5465 5460 5455 5452 5449 5445 5441 5438 5434 5431 5428 5424 5421 5418 5414 5411 5408 5404 5401 5398 5395 5393 5390 5388 5386 5385 5384 5383 5382 5381 5381 5380 5380 5380 5380 5380 5381 5383 5385
5564 5563 5561 5560 5558 5557 5555 5554 5552 5550 5548 5545 5543 5541 5539 5537 5534 5532 5529 5527 5525 5522 5519 5517 5514 5512 5510 5508 5506 5503 5499 5494 5489 5486 5484 5483 5482 5481 5480 5476 5473 5469 5466 5464 5463 5464 5464 5460 5454 5447 5442 5439 5437 5433 5429 5426 5422 5419 5415 5412 5409 5405 5401 5398 5395 5392 5389 5386 5384 5382 5380 5378 5377 5375 5374 5374 5373 5373 5372 5372 5371 5371 5371 5372 5374 5375
5559 5558 5556 5555 5554 5552 5550 5549 5547 5545 5543 5540 5538 5535 5533 5530 5528 5526 5523 5521 5519 5516 5513 5511 5509 5506 5504 5501 5499 5497 5493 5488 5483 5479 5477 5475 5474 5474 5472 5468 5465 5461 5458 5454 5451 5451 5453 5454 5450 5442 5434 5430 5428 5425 5421 5417 5414 5410 5406 5403 5399 5396 5392 5389 5386 5383 5381 5378 5376 5374 5373 5371 5370 5369 5368 5367 5367 5366 5365 5365 5364 5363 5363 5364 5365 5367
5555 5554 5552 5550 5549 5547 5545 5544 5542 5540 5537 5535 5533 5530 5527 5524 5522 5519 5517 5514 5512 5510 5507 5505 5503 5500 5498 5495 5492 5489 5487 5482 5477 5472 5469 5468 5466 5465 5464 5460 5457 5453 5449 5445 5441 5439 5439 5441 5442 5438 5430 5424 5419 5416 5412 5409 5404 5400 5397 5393 5390 5387 5384 5381 5378 5375 5374 5372 5370 5368 5367 5365 5364 5363 5362 5361 5361 5360 5359 5359 5358 5357 5357 5357 5359 5360
5551 5549 5548 5546 5544 5543 5541 5539 5537 5534 5532 5530 5527 5524 5522 5519 5516 5514 5511 5509 5506 5504 5501 5499 5497 5494 5492 5489 5486 5483 5479 5475 5470 5466 5463 5461 5459 5458 5457 5453 5449 5445 5442 5438 5434 5430 5427 5426 5428 5428 5425 5419 5412 5407 5403 5399 5395 5391 5387 5384 5381 5379 5376 5373 5370 5369 5367 5366 5364 5363 5361 5360 5359 5358 5357 5356 5355 5354 5354 5353 5352 5351 5351 5351 5352 5354
5546 5545 5543 5542 5540 5538 5536 5534 5532 5530 5527 5525 5522 5519 5517 5514 5511 5508 5506 5503 5500 5498 5496 5493 5491 5488 5486 5483 5480 5477 5473 5468 5463 5459 5456 5453 5451 5450 5449 5445 5441 5437 5434 5430 5426 5422 5418 5416 5415 5415 5414 5411 5406 5400 5394 5390 5386 5383 5379 5376 5373 5371 5369 5367 5364 5362 5361 5360 5359 5357 5356 5355 5354 5352 5351 5350 5350 5349 5348 5348 5347 5346 5346 5346 5347 5348
5543 5541 5539 5537 5536 5534 5532 5530 5527 5525 5523 5520 5517 5514 5512 5509 5506 5503 5500 5498 5495 5492 5490 5488 5485 5482 5479 5477 5474 5471 5468 5463 5457 5452 5449 5446 5444 5442 5440 5438 5434 5429 5425 5422 5419 5415 5411 5408 5406 5404 5401 5400 5398 5394 5387 5381 5377 5374 5372 5369 5366 5364 5362 5361 5359 5357 5356 5354 5353 5352 5351 5349 5348 5347 5346 5345 5344 5344 5343 5342 5342 5341 5341 5341 5342 5343
5539 5537 5535 5533 5532 5530 5528 5525 5523 5520 5518 5515 5513 5510 5507 5504 5501 5499 5496 5493 5490 5487 5484 5482 5479 5477 5474 5471 5468 5465 5461 5457 5452 5446 5442 5439 5436 5434 5431 5429 5426 5422 5417 5413 5410 5407 5403 5400 5399 5396 5391 5388 5387 5385 5381 5375 5370 5367 5365 5363 5360 5358 5356 5355 5353 5352 5350 5349 5348 5347 5345 5344 5343 5342 5341 5340 5339 5339 5338 5337 5337 5336 5336 5336 5337 5337
5534 5533 5531 5529 5528 5526 5524 5521 5519 5516 5514 5511 5508 5505 5502 5499 5497 5494 5491 5488 5485 5482 5479 5477 5474 5471 5468 5465 5462 5458 5455 5451 5446 5441 5436 5432 5429 5426 5423 5421 5418 5414 5410 5405 5402 5399 5396 5393 5390 5388 5385 5380 5377 5376 5374 5370 5365 5361 5359 5357 5354 5352 5351 5349 5348 5346 5344 5344 5343 5341 5339 5338 5337 5336 5335 5334 5334 5333 5332 5332 5332 5331 5331 5331 5331 5332
5530 5529 5527 5525 5523 5521 5519 5517 5514 5512 5509 5506 5503 5500 5498 5495 5492 5489 5486 5484 5481 5478 5475 5472 5469 5466 5462 5459 5455 5452 5448 5444 5440 5436 5431 5426 5422 5419 5416 5413 5411 5408 5404 5398 5394 5391 5389 5385 5382 5380 5378 5374 5371 5368 5365 5363 5360 5357 5354 5352 5349 5347 5345 5344 5342 5340 5339 5337 5336 5335 5333 5332 5330 5329 5329 5328 5327 5327 5326 5326 5326 5326 5325 5325 5326 5327
5526 5524 5522 5521 5519 5517 5515 5513 5510 5507 5505 5502 5499 5496 5493 5490 5488 5485 5482 5479 5476 5473 5470 5468 5464 5461 5458 5454 5450 5446 5442 5439 5434 5430 5425 5421 5417 5413 5410 5407 5404 5401 5398 5393 5388 5384 5380 5377 5374 5372 5370 5368 5366 5363 5359 5356 5354 5352 5349 5347 5345 5342 5340 5338 5336 5334 5332 5331 5329 5328 5326 5325 5324 5323 5322 5321 5320 5320 5320 5320 5320 5319 5319 5319 5320 5321
5521 5519 5518 5516 5514 5513 5510 5508 5505 5503 5500 5497 5494 5491 5489 5486 5483 5481 5478 5475 5472 5469 5466 5463 5460 5457 5454 5449 5445 5441 5437 5433 5429 5425 5421 5416 5412 5408 5405 5401 5398 5395 5391 5388 5383 5378 5374 5370 5367 5365 5363 5360 5359 5357 5355 5352 5349 5346 5344 5342 5341 5339 5335 5332 5330 5328 5326 5324 5322 5321 5320 5318 5317 5316 5315 5314 5314 5313 5313 5313 5313 5313 5313 5313 5314 5315
5517 5515 5514 5512 5510 5508 5505 5503 5500 5498 5495 5492 5489 5487 5484 5482 5479 5476 5474 5471 5468 5465 5462 5459 5456 5453 5449 5445 5441 5437 5432 5429 5424 5420 5416 5412 5407 5403 5399 5396 5393 5389 5385 5382 5378 5373 5368 5364 5361 5359 5357 5354 5352 5351 5350 5347 5344 5341 5338 5336 5335 5334 5331 5328 5324 5321 5319 5317 5315 5314 5312 5311 5310 5309 5308 5307 5306 5306 5305 5305 5305 5305 5305 5305 5306 5308
5512 5511 5509 5507 5505 5503 5500 5498 5495 5493 5490 5487 5484 5482 5479 5477 5474 5472 5469 5466 5464 5460 5458 5455 5452 5449 5445 5442 5438 5433 5429 5424 5420 5416 5412 5408 5403 5399 5395 5391 5387 5383 5380 5376 5372 5369 5365 5360 5356 5353 5352 5349 5347 5345 5344 5343 5339 5336 5333 5330 5329 5327 5326 5323 5319 5314 5312 5310 5308 5307 5305 5304 5303 5301 5300 5299 5298 5298 5297 5296 5296 5296 5297 5297 5298 5300
5508 5506 5504 5503 5500 5498 5495 5493 5490 5488 5485 5482 5479 5477 5474 5472 5470 5467 5465 5462 5459 5456 5453 5450 5448 5444 5441 5438 5434 5429 5425 5420 5416 5412 5407 5403 5399 5394 5390 5386 5382 5378 5374 5370 5366 5364 5361 5357 5353 5349 5346 5344 5342 5340 5339 5337 5335 5332 5328 5325 5322 5320 5319 5317 5313 5309 5304 5302 5301 5299 5297 5295 5294 5293 5292 5291 5290 5289 5288 5287 5287 5287 5287 5288 5289 5290
5504 5502 5500 5498 5495 5493 5491 5488 5485 5483 5480 5477 5475 5472 5469 5467 5465 5462 5460 5458 5455 5452 5449 5446 5443 5440 5437 5434 5430 5426 5421 5417 5412 5408 5403 5399 5394 5390 5385 5381 5377 5373 5369 5365 5361 5358 5356 5353 5350 5346 5341 5339 5337 5335 5333 5332 5330 5327 5324 5320 5316 5313 5311 5309 5306 5302 5299 5295 5293 5291 5289 5287 5286 5284 5283 5282 5281 5280 5279 5278 5277 5277 5277 5278 5279 5281
5499 5497 5495 5493 5490 5488 5486 5483 5481 5478 5475 5473 5470 5467 5464 5462 5460 5457 5455 5453 5450 5447 5444 5441 5438 5435 5432 5429 5426 5422 5418 5414 5409 5404 5399 5394 5390 5385 5381 5376 5372 5368 5364 5361 5357 5354 5351 5349 5346 5343 5339 5336 5333 5331 5329 5326 5324 5322 5319 5315 5311 5307 5304 5301 5298 5295 5292 5289 5287 5284 5282 5279 5277 5276 5275 5274 5272 5271 5269 5268 5267 5267 5267 5268 5269 5271
5494 5492 5490 5488 5486 5484 5481 5479 5476 5474 5471 5468 5465 5463 5460 5457 5455 5452 5450 5448 5445 5442 5439 5436 5433 5430 5427 5424 5421 5418 5414 5411 5406 5401 5395 5390 5386 5381 5376 5372 5368 5364 5360 5357 5354 5351 5348 5344 5341 5339 5336 5333 5330 5327 5324 5321 5319 5316 5314 5310 5305 5301 5297 5294 5291 5289 5286 5284 5281 5279 5275 5273 5270 5269 5268 5266 5264 5263 5261 5259 5258 5257 5257 5257 5259 5260
5489 5488 5486 5484 5481 5479 5477 5474 5472 5469 5466 5464 5461 5458 5455 5452 5450 5447 5445 5443 5440 5437 5434 5431 5428 5425 5421 5418 5416 5413 5409 5406 5403 5398 5393 5387 5382 5377 5373 5368 5364 5360 5357 5353 5351 5348 5345 5342 5338 5334 5332 5329 5327 5324 5321 5317 5313 5310 5308 5304 5300 5296 5293 5289 5286 5283 5280 5278 5276 5273 5270 5267 5265 5263 5261 5259 5257 5255 5253 5251 5249 5248 5247 5247 5248 5249
5485 5483 5481 5479 5477 5474 5472 5469 5467 5464 5462 5459 5456 5453 5450 5448 5445 5443 5440 5438 5435 5432 5429 5426 5423 5420 5416 5413 5410 5407 5404 5400 5397 5394 5389 5384 5379 5374 5370 5365 5361 5357 5354 5351 5348 5345 5342 5339 5335 5332 5328 5325 5323 5320 5317 5314 5309 5306 5302 5299 5296 5292 5289 5285 5282 5279 5276 5274 5271 5268 5265 5262 5259 5257 5254 5252 5250 5248 5246 5243 5241 5239 5238 5238 5238 5239
5480 5478 5476 5474 5472 5469 5467 5465 5463 5460 5457 5455 5452 5449 5446 5443 5441 5438 5435 5433 5430 5428 5424 5421 5418 5415 5412 5408 5404 5401 5398 5394 5391 5388 5384 5380 5375 5371 5367 5362 5359 5355 5352 5349 5346 5343 5339 5335 5332 5328 5324 5321 5319 5316 5314 5310 5307 5302 5299 5295 5292 5289 5286 5283 5280 5276 5273 5270 5267 5264 5260 5257 5254 5251 5249 5246 5244 5242 5239 5236 5233 5231 5229 5229 5229 5230
5475 5474 5471 5469 5467 5465 5463 5460 5458 5456 5453 5450 5448 5445 5442 5439 5437 5434 5431 5429 5426 5423 5420 5417 5414 5410 5407 5404 5400 5397 5393 5389 5386 5382 5378 5374 5370 5366 5363 5359 5356 5353 5350 5347 5344 5341 5337 5334 5329 5324 5320 5317 5315 5312 5310 5307 5304 5300 5297 5293 5290 5287 5284 5281 5278 5274 5270 5267 5263 5260 5256 5253 5249 5246 5243 5240 5238 5235 5233 5229 5226 5224 5222 5220 5220 5221
5470 5469 5467 5465 5463 5460 5458 5456 5454 5451 5449 5446 5444 5441 5438 5435 5432 5429 5427 5424 5421 5418 5415 5412 5409 5406 5402 5399 5396 5392 5389 5385 5381 5377 5373 5369 5365 5362 5359 5356 5353 5350 5348 5345 5343 5339 5335 5332 5328 5323 5317 5314 5311 5309 5306 5304 5301 5299 5295 5291 5288 5284 5281 5279 5275 5272 5268 5264 5260 5257 5253 5249 5246 5242 5239 5235 5232 5229 5227 5224 5220 5218 5215 5214 5213 5214
5466 5464 5462 5460 5458 5456 5454 5451 5449 5447 5444 5442 5439 5437 5434 5431 5429 5425 5423 5420 5417 5414 5411 5408 5405 5401 5398 5394 5391 5388 5384 5380 5376 5372 5369 5365 5361 5358 5354 5352 5349 5347 5345 5343 5340 5337 5334 5331 5327 5322 5317 5312 5308 5306 5303 5301 5299 5296 5293 5290 5286 5283 5279 5276 5273 5270 5266 5262 5258 5254 5250 5246 5242 5238 5234 5230 5227 5224 5221 5219 5215 5212 5209 5208 5207 5208